This is the latest recevied weather packets stored in our database for station/object W4BOD. If no packets are shown the sender has not sent any weather packets the latest 10 day(s).
| Time | Temp. | Humidity | Pressure | Rain* | Wind** | Luminosity | Snow |
|---|---|---|---|---|---|---|---|
| 1777930976 | 27.22° C | 43% | 1009.9 hPa | 0 mm | - | 395 W/m² | - |
| 1777930673 | 27.22° C | 42% | 1010 hPa | 0 mm | - | 407 W/m² | - |
| 1777930369 | 27.22° C | 41% | 1009.8 hPa | 0 mm | - | 425 W/m² | - |
| 1777930067 | 27.22° C | 42% | 1010.1 hPa | 0 mm | - | 303 W/m² | - |
| 1777929763 | 27.78° C | 41% | 1009.9 hPa | 0 mm | - | 100 W/m² | - |
| 1777929461 | 27.78° C | 41% | 1009.9 hPa | 0 mm | - | 99 W/m² | - |
| 1777929156 | 27.78° C | 42% | 1009.9 hPa | 0 mm | - | 113 W/m² | - |
| 1777928854 | 27.78° C | 41% | 1009.8 hPa | 0 mm | - | 123 W/m² | - |
| 1777928551 | 27.22° C | 44% | 1009.8 hPa | 0 mm | - | 120 W/m² | - |
| 1777928248 | 27.22° C | 42% | 1009.9 hPa | 0 mm | - | 373 W/m² | - |
| 1777927946 | 27.78° C | 43% | 1010.2 hPa | 0 mm | - | 202 W/m² | - |
| 1777927644 | 27.78° C | 41% | 1010 hPa | 0 mm | - | 138 W/m² | - |
| 1777927342 | 27.78° C | 41% | 1010 hPa | 0 mm | - | 596 W/m² | - |
| 1777927041 | 26.67° C | 45% | 1009.9 hPa | 0 mm | - | 130 W/m² | - |
| 1777926738 | 27.22° C | 43% | 1010.1 hPa | 0 mm | - | 545 W/m² | - |
| 1777926438 | 27.78° C | 40% | 1010.2 hPa | 0 mm | - | 664 W/m² | - |
| 1777926135 | 27.22° C | 42% | 1010.3 hPa | 0 mm | - | 690 W/m² | - |
| 1777925832 | 27.78° C | 43% | 1010.3 hPa | 0 mm | - | 135 W/m² | - |
| 1777925530 | 27.78° C | 42% | 1010.5 hPa | 0 mm | - | 706 W/m² | - |
| 1777925227 | 27.22° C | 43% | 1010.4 hPa | 0 mm | - | 686 W/m² | - |
| 1777924923 | 27.22° C | 45% | 1010.6 hPa | 0 mm | - | 732 W/m² | - |
| 1777924619 | 27.78° C | 45% | 1010.6 hPa | 0 mm | - | 312 W/m² | - |
| 1777924315 | 27.78° C | 49% | 1010.5 hPa | 0 mm | - | 712 W/m² | - |
| 1777924013 | 27.78° C | 45% | 1010.7 hPa | 0 mm | - | 765 W/m² | - |
| 1777923708 | 27.78° C | 43% | 1010.8 hPa | 0 mm | - | 776 W/m² | - |
* Rain latest hour (hover to see other rain measurements)
** Current wind speed in m/s (hover to see current wind gust speed)